Change the Weather History Date:

Thursday, March 27, 2014

  Actual Average Record
Temperature  
Mean Temperature 59 °F 58 °F  
Max Temperature 74 °F 72 °F 85 °F (1991)
Min Temperature 43 °F 45 °F 20 °F (1955)
Degree Days  
Heating Degree Days 6 7  
Month to date heating degree days 308 266  
Since 1 July heating degree days 2625 2356  
Growing Degree Days 9 (Base 50)    
Moisture  
Dew Point 39 °F    
Average Humidity 46    
Maximum Humidity 65    
Minimum Humidity 26    
Precipitation  
Precipitation 0.64 in 0.15 in 1.35 in (1951)
Month to date precipitation 3.33 3.97  
Year to date precipitation 11.05 14.64  
Sea Level Pressure  
Sea Level Pressure 30.12 in    
Wind  
Wind Speed 11 mph (SSE)    
Max Wind Speed 26 mph    
Max Gust Speed 36 mph    
Visibility 9 miles    
Events Rain , Thunderstorm    
T = Trace of Precipitation, MM = Missing Value Source: NWS Daily Summary

Daily Weather History Graph

Daily Weather History Graph

Search for Another Location

Airport or City:

Trip Planner

Search our weather history database for the weather conditions in past years. The results will help you decide how hot, cold, wet, or windy it might be!

Date:

Astronomy

Mar. 27, 2014 Rise Set
Actual Time 6:44 AM CDT 7:07 PM CDT
Civil Twilight 6:20 AM CDT 7:32 PM CDT
Nautical Twilight 5:50 AM CDT 8:01 PM CDT
Astronomical Twilight 5:21 AM CDT 8:30 PM CDT
Moon 4:25 AM CDT (3/27) 4:03 PM CDT (3/27)
Length of Visible Light 13h 12m
Length of Day
12h 22m
Waning Crescent, 13% of the Moon is Illuminated
Mar 27
Waning Crescent
Mar 30
New
Apr 7
First Quarter
Apr 15
Full
Apr 22
Last Quarter

Hourly Weather History & Observations

Time (CDT) Temp. Windchill Dew Point Humidity Pressure Visibility Wind Dir Wind Speed Gust Speed Precip Events Conditions
12:53 AM 48.0 °F - 26.1 °F 42% 30.21 in 10.0 mi Variable 4.6 mph - N/A   Clear
1:53 AM 45.0 °F - 34.0 °F 65% 30.22 in 10.0 mi Calm Calm - N/A   Clear
2:53 AM 45.0 °F - 33.1 °F 63% 30.21 in 10.0 mi Calm Calm - N/A   Clear
3:53 AM 46.0 °F 44.8 °F 28.0 °F 50% 30.20 in 10.0 mi South 3.5 mph - N/A   Clear
4:53 AM 45.0 °F 42.6 °F 26.1 °F 48% 30.18 in 10.0 mi East 4.6 mph - N/A   Clear
5:53 AM 48.0 °F - 25.0 °F 41% 30.19 in 10.0 mi SE 6.9 mph - N/A   Overcast
6:53 AM 46.9 °F - 25.0 °F 42% 30.21 in 10.0 mi ESE 5.8 mph - N/A   Mostly Cloudy
7:53 AM 48.0 °F - 27.0 °F 44% 30.22 in 10.0 mi SE 6.9 mph - N/A   Overcast
8:53 AM 48.9 °F - 26.1 °F 41% 30.22 in 9.0 mi SE 11.5 mph 16.1 mph N/A   Overcast
9:53 AM 52.0 °F - 28.9 °F 41% 30.23 in 9.0 mi SE 10.4 mph - N/A   Overcast
10:53 AM 60.1 °F - 35.1 °F 39% 30.22 in 9.0 mi SE 10.4 mph 17.3 mph N/A   Mostly Cloudy
11:53 AM 64.9 °F - 36.0 °F 34% 30.17 in 9.0 mi SE 8.1 mph 20.7 mph N/A   Clear
12:53 PM 66.0 °F - 34.0 °F 30% 30.15 in 10.0 mi South 13.8 mph 24.2 mph N/A   Partly Cloudy
1:53 PM 69.1 °F - 34.0 °F 27% 30.12 in 10.0 mi South 16.1 mph 25.3 mph N/A   Scattered Clouds
2:53 PM 71.1 °F - 37.9 °F 30% 30.08 in 10.0 mi South 15.0 mph 25.3 mph N/A   Mostly Cloudy
3:53 PM 71.1 °F - 41.0 °F 34% 30.05 in 10.0 mi South 12.7 mph 21.9 mph N/A   Overcast
4:53 PM 73.0 °F - 42.1 °F 33% 30.02 in 10.0 mi South 11.5 mph 23.0 mph N/A   Mostly Cloudy
5:53 PM 72.0 °F - 44.1 °F 37% 30.01 in 10.0 mi South 16.1 mph 23.0 mph N/A   Partly Cloudy
6:53 PM 71.1 °F - 46.9 °F 42% 30.00 in 10.0 mi South 13.8 mph 20.7 mph N/A   Mostly Cloudy
7:53 PM 69.1 °F - 48.0 °F 47% 30.00 in 10.0 mi South 13.8 mph 20.7 mph N/A   Mostly Cloudy
8:53 PM 68.0 °F - 50.0 °F 52% 30.00 in 10.0 mi South 16.1 mph 35.7 mph N/A   Scattered Clouds
9:53 PM 66.9 °F - 51.1 °F 57% 30.02 in 10.0 mi SSE 19.6 mph 27.6 mph N/A   Overcast
10:53 PM 61.0 °F - 55.9 °F 83% 30.07 in 3.0 mi South 13.8 mph - 0.10 in Rain , Thunderstorm Rain
11:01 PM 60.8 °F - 57.2 °F 88% 30.07 in 1.8 mi South 11.5 mph 21.9 mph 0.10 in Rain , Thunderstorm Heavy Rain
11:18 PM 60.8 °F - 57.2 °F 88% 30.04 in 2.5 mi SSE 12.7 mph - 0.22 in Rain , Thunderstorm Thunderstorms and Rain
11:24 PM 60.8 °F - 57.2 °F 88% 30.04 in 4.0 mi SSE 10.4 mph 18.4 mph 0.23 in Rain Light Rain
11:53 PM 59.0 °F - 57.0 °F 93% 30.06 in 4.0 mi South 11.5 mph - 0.30 in Rain Rain